AV194 Weather Reports


Display with metric or nautical units.
time (UTC)temp
F
wind
direction
speed
MPH
gust
MPH
rain 1hr
in
rain 24hr
in
rain mn
in
humidity
%
barometer
mb
20260903180040 68 70 0.0 4.0 0.00 0.04 0.04 90 1012.4
20260903175539 68 122 1.0 5.0 0.00 0.04 0.04 91 1012.5
20260903175041 68 57 2.0 5.0 0.00 0.04 0.04 91 1012.6
20260903174538 67 90 0.0 2.0 0.00 0.04 0.04 90 1012.6
20260903174037 68 319 1.0 5.0 0.00 0.04 0.04 90 1012.7
20260903173538 67 83 1.0 5.0 0.00 0.04 0.04 91 1012.8
20260903173038 67 51 0.0 1.0 0.00 0.04 0.04 90 1012.9
20260903172537 67 45 0.0 2.0 0.00 0.04 0.04 90 1012.8
20260903172036 68 39 0.0 4.0 0.00 0.04 0.04 90 1012.7
20260903171537 68 105 0.0 5.0 0.00 0.04 0.04 90 1012.7
20260903171036 68 52 1.0 6.0 0.00 0.04 0.04 90 1012.7
20260903170536 68 46 0.0 6.0 0.00 0.04 0.04 90 1012.5
20260903170037 68 71 1.0 6.0 0.00 0.04 0.04 90 1012.5
20260903165534 68 76 3.0 6.0 0.00 0.04 0.04 90 1012.6
20260903165038 68 33 0.0 3.0 0.00 0.04 0.04 91 1012.6
20260903164634 68 92 1.0 5.0 0.00 0.04 0.04 91 1012.6
20260903164036 67 49 1.0 6.0 0.00 0.04 0.04 91 1012.7
20260903163533 67 184 2.0 6.0 0.00 0.04 0.04 92 1012.7
20260903163032 67 89 2.0 5.0 0.00 0.04 0.04 92 1012.7
20260903162531 67 37 1.0 3.0 0.00 0.04 0.04 92 1012.6
20260903162031 67 24 0.0 4.0 0.00 0.04 0.04 92 1012.6
20260903161536 66 86 1.0 4.0 0.00 0.04 0.04 92 1012.8
20260903161028 66 132 1.0 4.0 0.00 0.04 0.04 93 1012.8
20260903160528 66 43 0.0 5.0 0.00 0.04 0.04 93 1012.8
20260903160028 66 36 0.0 5.0 0.00 0.04 0.04 93 1012.9
20260903155535 66 169 1.0 5.0 0.00 0.04 0.04 93 1012.9
20260903155027 66 175 1.0 7.0 0.00 0.04 0.04 93 1012.9
20260903154526 66 360 1.0 7.0 0.00 0.04 0.04 94 1012.7
20260903154026 66 18 1.0 5.0 0.00 0.04 0.04 95 1012.9
20260903153524 65 28 2.0 5.0 0.00 0.04 0.04 95 1013.0
20260903153023 65 74 0.0 4.0 0.00 0.04 0.04 95 1013.1
20260903152522 65 111 1.0 4.0 0.00 0.04 0.04 95 1013.2
20260903152022 65 34 0.0 2.0 0.00 0.04 0.04 96 1013.3
20260903151519 64 37 0.0 3.0 0.00 0.04 0.04 95 1013.4
20260903151019 64 38 1.0 4.0 0.00 0.04 0.04 96 1013.5
20260903150520 64 75 1.0 4.0 0.00 0.04 0.04 96 1013.5
20260903150018 64 14 0.0 4.0 0.00 0.04 0.04 96 1013.5
20260903145520 64 67 1.0 4.0 0.00 0.04 0.04 96 1013.4
20260903145018 64 65 0.0 4.0 0.00 0.04 0.04 95 1013.5
20260903144518 64 86 0.0 5.0 0.00 0.04 0.04 96 1013.5
20260903144016 64 50 2.0 5.0 0.00 0.04 0.04 96 1013.6
20260903143515 63 82 0.0 2.0 0.00 0.04 0.04 96 1013.6
20260903143018 63 55 0.0 1.0 0.00 0.04 0.04 96 1013.5
20260903142515 63 55 0.0 2.0 0.00 0.04 0.04 96 1013.5
20260903142018 64 65 0.0 2.0 0.00 0.04 0.04 96 1013.5
20260903141513 64 90 0.0 1.0 0.00 0.04 0.04 96 1013.6
20260903141012 63 90 0.0 1.0 0.00 0.04 0.04 96 1013.9
20260903140512 63 90 0.0 1.0 0.00 0.04 0.04 96 1013.8
20260903140015 63 49 0.0 0.0 0.00 0.04 0.04 96 1013.9
20260903135509 63 43 0.0 0.0 0.00 0.04 0.04 96 1013.9
20260903135009 63 43 0.0 0.0 0.00 0.04 0.04 96 1014.0
20260903134510 63 43 0.0 1.0 0.00 0.04 0.04 96 1014.0
20260903134010 63 43 0.0 1.0 0.00 0.04 0.04 96 1014.0
20260903133509 63 40 0.0 0.0 0.00 0.04 0.04 96 1013.9
20260903133012 63 40 0.0 1.0 0.00 0.04 0.04 96 1013.9
20260903132509 63 40 0.0 1.0 0.00 0.04 0.04 96 1013.7
20260903132008 63 40 0.0 1.0 0.00 0.04 0.04 96 1013.7
20260903131512 62 82 0.0 1.0 0.00 0.04 0.04 96 1013.7
20260903131007 62 82 0.0 1.0 0.00 0.04 0.04 96 1013.9
20260903130506 62 82 0.0 2.0 0.00 0.04 0.04 96 1013.9
20260903130006 62 102 0.0 2.0 0.00 0.04 0.04 96 1013.8
20260903125506 62 88 0.0 0.0 0.00 0.04 0.04 96 1013.9
20260903125006 62 88 0.0 0.0 0.00 0.04 0.04 96 1013.9
20260903124505 62 88 0.0 0.0 0.00 0.04 0.04 96 1013.9
20260903124005 62 88 0.0 0.0 0.00 0.04 0.04 96 1014.0
20260903123506 62 88 0.0 1.0 0.00 0.04 0.04 96 1014.1
20260903123004 62 88 0.0 1.0 0.00 0.04 0.04 96 1014.2
20260903122503 62 88 0.0 0.0 0.00 0.04 0.04 96 1014.4
20260903122002 62 88 0.0 0.0 0.00 0.04 0.04 96 1014.3
20260903121500 62 88 0.0 0.0 0.00 0.04 0.04 96 1014.4
20260903121100 62 88 0.0 1.0 0.00 0.04 0.04 96 1014.4
20260903120602 62 88 0.0 2.0 0.00 0.04 0.04 96 1014.5
20260903115559 62 63 0.0 1.0 0.00 0.04 0.04 95 1014.5
20260903115058 62 60 0.0 1.0 0.00 0.04 0.04 96 1014.5
20260903114557 62 48 0.0 0.0 0.00 0.04 0.04 95 1014.7
20260903114056 62 46 0.0 0.0 0.00 0.04 0.04 95 1014.7
20260903113559 62 46 0.0 0.0 0.00 0.04 0.04 95 1014.7
20260903113055 62 46 0.0 1.0 0.00 0.04 0.04 95 1014.7
20260903112556 62 46 0.0 0.0 0.00 0.04 0.04 95 1014.8
20260903112055 62 46 0.0 1.0 0.00 0.04 0.04 95 1014.8
20260903111554 62 46 0.0 1.0 0.00 0.04 0.04 95 1014.8
20260903111054 62 77 0.0 0.0 0.00 0.04 0.04 95 1014.7
20260903110557 61 77 0.0 0.0 0.01 0.04 0.04 95 1014.7
20260903110053 61 77 0.0 0.0 0.01 0.04 0.04 95 1014.7
20260903105555 62 77 0.0 0.0 0.01 0.04 0.04 95 1014.6
20260903105053 61 77 0.0 0.0 0.02 0.04 0.04 95 1014.7
20260903104552 61 77 0.0 0.0 0.03 0.04 0.04 95 1014.7
20260903104051 61 77 0.0 1.0 0.03 0.04 0.04 95 1014.8
20260903103551 61 77 0.0 1.0 0.03 0.04 0.04 95 1014.7
20260903103051 61 267 0.0 0.0 0.03 0.04 0.04 95 1014.6
20260903102552 61 267 0.0 0.0 0.03 0.04 0.04 95 1014.5
20260903102050 61 267 0.0 0.0 0.03 0.04 0.04 94 1014.7
20260903101552 62 267 0.0 1.0 0.03 0.04 0.04 94 1014.6
20260903101050 62 267 0.0 1.0 0.03 0.04 0.04 94 1014.7
20260903100550 62 267 0.0 1.0 0.02 0.03 0.03 94 1014.6
20260903100050 62 267 0.0 1.0 0.02 0.03 0.03 94 1014.6
20260903095549 62 267 0.0 1.0 0.02 0.03 0.03 94 1014.6
20260903095050 62 267 0.0 2.0 0.01 0.02 0.02 94 1014.8
20260903094600 62 267 0.0 2.0 0.00 0.01 0.01 94 1014.7
20260903094049 62 17 0.0 0.0 0.01 0.01 0.01 94 1014.6
20260903093548 62 17 0.0 0.0 0.01 0.01 0.01 94 1014.8
20260903093052 62 302 0.0 0.0 0.01 0.01 0.01 94 1014.8
20260903092546 62 302 0.0 0.0 0.01 0.01 0.01 93 1014.7
20260903092046 62 302 0.0 0.0 0.01 0.01 0.01 93 1014.8
20260903091555 62 302 0.0 0.0 0.01 0.01 0.01 93 1014.8
20260903091048 62 302 0.0 0.0 0.01 0.01 0.01 93 1014.8
20260903090544 62 302 0.0 0.0 0.01 0.01 0.01 93 1015.1
20260903090043 62 302 0.0 0.0 0.01 0.01 0.01 93 1015.1
20260903085542 63 302 0.0 0.0 0.01 0.01 0.01 93 1015.3
20260903085045 63 302 0.0 0.0 0.01 0.01 0.01 93 1015.2
20260903084542 63 302 0.0 0.0 0.01 0.01 0.01 93 1015.2
20260903084041 63 302 0.0 0.0 0.00 0.00 0.00 93 1015.2
20260903083541 63 302 0.0 0.0 0.00 0.00 0.00 92 1015.1
20260903083041 63 302 0.0 0.0 0.00 0.00 0.00 92 1015.1
20260903082543 63 302 0.0 0.0 0.00 0.00 0.00 91 1015.1
20260903082041 63 302 0.0 0.0 0.00 0.00 0.00 91 1015.1
20260903081546 63 302 0.0 0.0 0.00 0.00 0.00 91 1015.2
20260903081041 63 302 0.0 0.0 0.00 0.00 0.00 90 1015.3
20260903080538 63 302 0.0 1.0 0.00 0.00 0.00 90 1015.2
20260903080039 64 302 0.0 1.0 0.00 0.00 0.00 90 1015.2
20260903075538 64 355 0.0 1.0 0.00 0.00 0.00 90 1015.1
20260903075041 64 355 0.0 2.0 0.00 0.00 0.00 90 1015.3
20260903074540 64 5 0.0 2.0 0.00 0.00 0.00 90 1015.3
20260903074037 64 21 0.0 1.0 0.00 0.00 0.00 90 1015.0
20260903073537 64 21 0.0 1.0 0.00 0.00 0.00 91 1015.3
20260903073044 64 40 0.0 2.0 0.00 0.00 0.00 91 1015.2
20260903072536 64 324 0.0 2.0 0.00 0.00 0.00 90 1015.2
20260903072036 64 9 0.0 1.0 0.00 0.00 0.00 90 1015.1
20260903071536 64 9 0.0 0.0 0.00 0.00 0.00 90 1015.2
20260903071034 64 9 0.0 1.0 0.00 0.00 0.00 91 1015.3
20260903070538 64 9 0.0 1.0 0.00 0.00 0.00 91 1015.4
20260903070033 64 9 0.0 1.0 0.00 0.01 0.00 91 1015.4
20260903065532 64 9 0.0 1.0 0.00 0.01 0.00 91 1015.5
20260903065031 64 9 0.0 1.0 0.00 0.01 0.00 91 1015.6
20260903064532 64 9 0.0 1.0 0.00 0.01 0.00 91 1015.7
20260903064029 64 9 0.0 1.0 0.00 0.01 0.00 91 1016.0
20260903063529 64 5 0.0 1.0 0.00 0.01 0.00 91 1016.2
20260903063031 64 67 0.0 0.0 0.00 0.01 0.00 91 1016.3
20260903062526 64 67 0.0 1.0 0.00 0.01 0.00 91 1016.4
20260903062027 64 67 0.0 2.0 0.00 0.01 0.00 91 1016.5
20260903061525 64 70 0.0 4.0 0.00 0.01 0.00 91 1016.7
20260903061026 64 76 0.0 3.0 0.00 0.01 0.00 91 1016.8
20260903060524 64 5 0.0 2.0 0.00 0.01 0.00 91 1017.0
20260903060023 64 311 0.0 1.0 0.00 0.01 0.00 91 1017.0
20260903055522 64 311 0.0 1.0 0.00 0.01 0.00 91 1017.1
20260903055022 64 311 0.0 1.0 0.00 0.01 0.00 91 1017.3
20260903054523 64 311 0.0 0.0 0.00 0.01 0.00 91 1017.5
20260903054025 64 311 0.0 0.0 0.00 0.01 0.00 91 1017.6
20260903053522 64 311 0.0 1.0 0.00 0.01 0.00 91 1017.6
20260903053020 64 311 0.0 1.0 0.00 0.01 0.00 91 1017.5
20260903052520 64 311 0.0 1.0 0.00 0.01 0.00 91 1017.4
20260903052020 64 317 0.0 2.0 0.00 0.01 0.00 91 1017.4
20260903051520 64 317 0.0 2.0 0.00 0.01 0.00 91 1017.3
20260903051022 64 316 0.0 2.0 0.00 0.01 0.00 91 1017.3
20260903050519 64 23 0.0 4.0 0.00 0.01 0.00 91 1017.2
20260903050020 64 355 0.0 4.0 0.00 0.01 0.00 90 1017.2
20260903045520 64 13 0.0 1.0 0.00 0.01 0.00 90 1017.3
20260903045018 64 58 0.0 1.0 0.00 0.01 0.00 90 1017.3
20260903044517 64 59 0.0 1.0 0.00 0.01 0.00 90 1017.4
20260903044017 64 59 0.0 1.0 0.00 0.01 0.00 90 1017.5
20260903043516 64 59 0.0 4.0 0.00 0.01 0.00 90 1017.5
20260903043016 64 82 0.0 4.0 0.00 0.01 0.00 90 1017.5
20260903042516 64 46 0.0 1.0 0.00 0.01 0.00 90 1017.6
20260903042015 64 47 0.0 1.0 0.00 0.01 0.00 90 1017.6
20260903041515 64 38 0.0 1.0 0.00 0.01 0.00 90 1017.7
20260903041014 64 38 0.0 1.0 0.00 0.01 0.00 90 1017.8
20260903040514 64 37 0.0 2.0 0.00 0.01 0.00 90 1017.8
20260903040017 64 40 0.0 2.0 0.00 0.01 0.01 90 1017.6
20260903035515 64 64 0.0 2.0 0.00 0.01 0.01 90 1017.7
20260903035013 64 67 0.0 1.0 0.00 0.01 0.01 90 1017.8
20260903034518 64 60 0.0 1.0 0.00 0.01 0.01 90 1017.8
20260903034011 64 60 0.0 1.0 0.00 0.01 0.01 90 1017.7
20260903033513 64 60 0.0 1.0 0.00 0.01 0.01 90 1017.9
20260903033010 64 60 0.0 2.0 0.00 0.01 0.01 90 1018.1
20260903032511 64 60 0.0 2.0 0.00 0.01 0.01 90 1018.2
20260903032009 64 60 0.0 2.0 0.00 0.01 0.01 90 1018.3
20260903031508 64 336 0.0 1.0 0.00 0.01 0.01 90 1018.4
20260903031008 64 336 0.0 1.0 0.00 0.01 0.01 90 1018.3
20260903030508 64 336 0.0 0.0 0.00 0.01 0.01 90 1018.4
20260903030008 64 336 0.0 0.0 0.00 0.01 0.01 90 1018.3
20260903025507 64 336 0.0 0.0 0.00 0.01 0.01 90 1018.4
20260903025008 64 336 0.0 0.0 0.00 0.01 0.01 90 1018.4
20260903024507 64 336 0.0 1.0 0.00 0.01 0.01 90 1018.5
20260903024006 64 336 0.0 2.0 0.00 0.01 0.01 89 1018.5
20260903023506 64 336 0.0 2.0 0.00 0.01 0.01 89 1018.4
20260903023006 64 106 0.0 1.0 0.00 0.01 0.01 89 1018.3
20260903022508 64 106 0.0 1.0 0.00 0.01 0.01 89 1018.6
20260903022005 64 106 0.0 1.0 0.00 0.01 0.01 89 1018.8
20260903021505 64 84 0.0 1.0 0.00 0.01 0.01 89 1018.8
20260903021006 64 84 0.0 2.0 0.00 0.01 0.01 89 1018.8
20260903020506 64 24 0.0 2.0 0.00 0.01 0.01 89 1018.6
20260903020010 64 66 0.0 2.0 0.00 0.01 0.01 89 1018.8
20260903015505 64 43 0.0 1.0 0.00 0.01 0.01 90 1018.8
20260903015004 64 9 0.0 1.0 0.00 0.01 0.01 90 1018.9
20260903014504 64 9 0.0 1.0 0.00 0.01 0.01 90 1019.1
20260903014004 64 9 0.0 1.0 0.00 0.01 0.01 90 1019.1
20260903013504 64 9 0.0 0.0 0.00 0.01 0.01 90 1019.0
20260903013003 65 9 0.0 2.0 0.00 0.01 0.01 90 1019.0
20260903012503 64 5 0.0 4.0 0.00 0.01 0.01 90 1019.1
20260903012004 65 33 1.0 4.0 0.00 0.01 0.01 90 1018.7
20260903011508 65 360 0.0 2.0 0.00 0.01 0.01 90 1018.5
20260903011003 65 198 0.0 2.0 0.00 0.01 0.01 90 1018.4
20260903010502 65 102 0.0 2.0 0.00 0.01 0.01 90 1018.5
20260903010002 65 31 0.0 2.0 0.00 0.01 0.01 90 1018.5
20260903005503 65 49 0.0 2.0 0.00 0.01 0.01 90 1018.5
20260903005003 65 317 0.0 1.0 0.00 0.01 0.01 90 1018.5
20260903004614 65 317 0.0 1.0 0.00 0.01 0.01 90 1018.6
20260903004100 65 317 0.0 2.0 0.00 0.01 0.01 89 1018.7
20260903003601 66 351 0.0 2.0 0.00 0.01 0.01 89 1018.7
20260903003100 66 351 0.0 2.0 0.00 0.01 0.01 89 1018.6
20260903002600 66 67 0.0 1.0 0.00 0.01 0.01 89 1018.6
20260903002103 66 84 0.0 2.0 0.00 0.01 0.01 89 1018.6
20260903001559 66 25 0.0 4.0 0.00 0.01 0.01 88 1018.7
20260903001058 66 190 0.0 3.0 0.00 0.01 0.01 88 1018.7
20260903000558 66 50 0.0 2.0 0.00 0.01 0.01 88 1018.7
20260903000058 66 95 0.0 5.0 0.00 0.01 0.01 88 1018.7
20260902235557 66 83 1.0 5.0 0.00 0.01 0.01 87 1018.7
20260902235058 66 94 0.0 2.0 0.00 0.01 0.01 87 1018.8
20260902234557 66 355 0.0 5.0 0.00 0.01 0.01 87 1019.1
20260902234056 67 116 1.0 5.0 0.00 0.01 0.01 86 1019.2
20260902233556 67 56 0.0 4.0 0.00 0.01 0.01 86 1019.2
20260902233103 67 67 0.0 6.0 0.00 0.01 0.01 86 1019.3
20260902232556 67 111 2.0 6.0 0.00 0.01 0.01 85 1019.5
20260902232055 67 142 0.0 6.0 0.00 0.01 0.01 85 1019.5
20260902231556 67 94 0.0 6.0 0.00 0.01 0.01 85 1019.6
20260902231056 67 96 1.0 6.0 0.00 0.01 0.01 84 1019.5
20260902230555 67 92 2.0 6.0 0.00 0.01 0.01 84 1019.6
20260902230104 67 109 0.0 4.0 0.00 0.01 0.01 84 1019.6
20260902225555 68 79 0.0 3.0 0.00 0.01 0.01 83 1019.6
20260902225054 68 332 0.0 4.0 0.00 0.01 0.01 83 1019.7
20260902224557 68 66 1.0 7.0 0.00 0.01 0.01 83 1019.5
20260902224054 68 22 0.0 6.0 0.00 0.01 0.01 82 1019.3
20260902223554 68 61 2.0 6.0 0.00 0.01 0.01 82 1019.5
20260902223114 68 331 1.0 7.0 0.00 0.01 0.01 82 1019.8
20260902222554 68 66 1.0 7.0 0.00 0.01 0.01 82 1019.9
20260902222053 68 59 2.0 6.0 0.00 0.01 0.01 81 1020.0
20260902221554 68 119 2.0 5.0 0.00 0.01 0.01 81 1019.9
20260902221057 68 95 0.0 5.0 0.00 0.01 0.01 81 1019.9
20260902220553 68 75 0.0 5.0 0.00 0.01 0.01 81 1019.7
20260902220054 68 34 2.0 8.0 0.00 0.01 0.01 80 1019.9
20260902215552 68 107 2.0 8.0 0.00 0.01 0.01 80 1019.8
20260902215054 69 98 0.0 7.0 0.00 0.01 0.01 80 1019.8
20260902214554 69 63 2.0 6.0 0.00 0.01 0.01 80 1019.7
20260902214055 69 90 0.0 7.0 0.00 0.01 0.01 80 1019.6
20260902213552 69 92 0.0 7.0 0.00 0.01 0.01 79 1019.6
20260902213051 69 98 0.0 8.0 0.00 0.01 0.01 79 1019.7
20260902212550 69 61 1.0 8.0 0.00 0.01 0.01 79 1019.8
20260902212050 69 343 1.0 8.0 0.00 0.01 0.01 79 1019.7
20260902211552 69 40 2.0 8.0 0.00 0.01 0.01 79 1019.8
20260902211049 69 126 2.0 8.0 0.00 0.01 0.01 78 1019.6
20260902210549 69 111 2.0 7.0 0.00 0.01 0.01 78 1019.4
20260902210049 69 116 2.0 8.0 0.00 0.01 0.01 78 1019.3
20260902205548 69 108 3.0 8.0 0.00 0.01 0.01 77 1019.4
20260902205049 69 92 2.0 7.0 0.00 0.01 0.01 77 1019.6
20260902204628 69 22 1.0 7.0 0.00 0.01 0.01 77 1019.8
20260902204047 69 64 2.0 6.0 0.00 0.01 0.01 76 1019.7
20260902203547 70 39 2.0 6.0 0.00 0.01 0.01 77 1019.8
20260902203051 70 64 0.0 5.0 0.00 0.01 0.01 77 1020.0
20260902202549 70 5 0.0 9.0 0.00 0.01 0.01 76 1019.9
20260902202048 70 80 2.0 8.0 0.00 0.01 0.01 75 1020.0
20260902201547 70 200 2.0 8.0 0.00 0.01 0.01 75 1020.0
20260902201050 70 26 2.0 8.0 0.00 0.01 0.01 75 1019.9
20260902200545 70 15 2.0 6.0 0.00 0.01 0.01 76 1020.0
20260902200045 70 99 1.0 6.0 0.00 0.02 0.01 77 1020.1
20260902195545 70 20 3.0 7.0 0.00 0.02 0.01 76 1020.3
20260902195044 70 104 2.0 7.0 0.00 0.02 0.01 77 1020.4
20260902194543 70 109 2.0 7.0 0.00 0.02 0.01 78 1020.3
20260902194043 70 19 2.0 8.0 0.00 0.02 0.01 77 1020.2
20260902193546 70 42 2.0 9.0 0.00 0.02 0.01 78 1020.3
20260902193143 70 100 2.0 9.0 0.00 0.02 0.01 79 1020.4
20260902192541 70 25 1.0 6.0 0.00 0.02 0.01 78 1020.4
20260902192041 70 47 0.0 6.0 0.00 0.02 0.01 78 1020.5
20260902191542 70 32 2.0 6.0 0.00 0.02 0.01 78 1020.5
20260902191040 70 86 1.0 7.0 0.00 0.02 0.01 78 1020.7
20260902190540 70 5 4.0 7.0 0.00 0.02 0.01 79 1020.6
20260902190041 70 318 0.0 5.0 0.00 0.03 0.01 78 1020.7
20260902185542 70 24 1.0 6.0 0.00 0.03 0.01 79 1020.7
20260902185042 70 84 3.0 7.0 0.00 0.03 0.01 77 1020.7
20260902184540 70 65 0.0 10.0 0.00 0.03 0.01 78 1020.7
20260902184039 70 44 4.0 10.0 0.00 0.03 0.01 77 1020.5
20260902183539 70 102 1.0 7.0 0.00 0.03 0.01 78 1020.5
20260902183053 70 168 2.0 7.0 0.00 0.03 0.01 78 1020.5
20260902182538 70 211 1.0 5.0 0.00 0.03 0.01 78 1020.6
20260902182041 70 9 0.0 5.0 0.00 0.03 0.01 79 1020.5
20260902181540 70 64 0.0 6.0 0.00 0.03 0.01 79 1020.5
20260902181037 70 280 1.0 6.0 0.00 0.03 0.01 78 1020.4
20260902180536 70 347 0.0 8.0 0.00 0.03 0.01 80 1020.4